{"data":{"norad_id":63794,"epoch":"2026-09-20T15:50:00.833568Z","epoch_age_seconds":136055,"freshness":"FRESH","line1":"1 63794U 25091V   26263.65973187  .00011803  00000+0  43769-3 0  9995","line2":"2 63794  43.0034  31.1514 0000987 277.4537  82.6203 15.27583712 78725","mean_motion":15.27583712,"eccentricity":9.87e-5,"inclination_deg":43.0034,"raan_deg":31.1514,"arg_perigee_deg":277.4537,"mean_anomaly_deg":82.6203,"bstar":0.00043769,"rev_number":7872,"period_min":94.266519647206,"perigee_km":482.36078302815,"apogee_km":483.7151789694,"semimajor_km":6861.1749809988,"source":"CELESTRAK","updated_at":"2026-09-21T09:00:35.101722Z"}}